STARLINK-31845, 60129

Orbit data source: Space-Track

STARLINK-31845, 60129 is a payload satellite owned by SpaceX/Seattle (US) in LEO that was launched on Mon, 24 Jun 2024 UTC via an FALCON 9 launch vehicle from the Air Force Western Test Range (AFWTR). Payload-class satellites include a variety of spacecraft equipped with specific instruments for various scientific and technological missions. These include communications satellites like Starlink; space stations such as the ISS; scientific satellites like the Hubble; Earth observation satellites from companies like Planet Labs, Umbra, and HawkEye 360; GPS; miniature CubeSats for education and research; and military/defense satellites.

Loading next visibility...
Identifier
60129, 2024-118S
Orbit
LEO
Country
Flag of USUS
Related business
Manufacturer
SpaceX/Seattle
Mission
Operational Commercial Communications
Bus & Motor
STARLINK V2M, Unknown motor
Mass
730 kg wet, ~700 kg dry
Launch date (UTC)
2024-06-24 (2 years ago)
Launch vehicle
FALCON 9
Launch site
Air Force Western Test Range (AFWTR)
Object type
Payload
Rocket body
Debris
Shape & HBR
Box + 2 Pan, 17.7 m
Radar Cross Section
33.884 m², Large (>1 m²)

Expand to show TLE details & history
Last TLE update: 4 hours ago

TLE from 4 hours ago
0 STARLINK-31845
1 60129U 24118S   26127.19160069 -.00000461  00000-0 -34493-5 0  9995
2 60129  53.1589 112.8208 0001162  81.9054 278.2078 15.30188078104684
Epoch: 2026-05-07T04:35Z
TLE epoch observation values (Epoch: 2026-05-07T04:35:54.299Z)
Latitude
-0.00007°
Longitude
178.80322°
Altitude
476.037 km
Speed
7.629 km/s
True Right ascension
07h 31m 16s
True Declination
0° 00' 00"
Sunlit
Object was in daylight at epoch
Visualization orbit readout
Latitude
Unknown
Longitude
Unknown
Altitude
Unknown
Speed
Unknown
Apparent Right ascension
Unknown
Apparent Declination
Unknown
Sunlit
N/A
Visualization observer readout
Local Sidereal Time
16:42:06
Azimuth
Unknown
Elevation
Unknown
Doppler factor
Unknown
Orbital elements
Apogee altitude
476.304 km
Perigee altitude
474.711 km
Semi-major axis
6,853.644 km
Eccentricity
0.00012
Inclination
53.1589°
RAAN
112.8208°
Arg. of periapsis
81.9054°
True anomaly
278.19462°
Mean anomaly
278.2078°
Eccentric anomaly
278.20121°
Mean motion
3.82526 °/min
Orbital period
94.11 mins
BSTAR
-0.0000034493
Loading maneuver chart data...
Computing Atmospheric mass density...
Loading historical data...
Loading historical data...
Loading historical data...
Loading historical data...
Loading historical data...
Loading historical data...
Loading historical data...

Documentation

Showing up to 5 results
|